Content
SEND FEEDBACK

Daily
Averages
Monthly
Summary
United States of America

EARTH CITY, MISSOURI


Home > North America > United States > Missouri
Elevation: 476 feet     Latitude: 38 46N     Longitude: 090 30W

WEATHER
 
SELECT A DAY
Number of Records: 203,322;   Date Range: 1/1/95 - 7/20/14
 
SHARE

PRINT THIS DATA

[ ← Previous Day ]
WEATHER ALMANAC - FEBRUARY 21, 2013
[ Next Day → ]
[ °C ]   °F
Weather ElementAverageHighLow
Temperature27.9 °F33.8 °F (11:26 pm)21.9 °F (1:51 am)
Dewpoint22.1 °F30.2 °F (11:26 pm)12.9 °F (1:51 am)
Humidity79.1 %89 % (11:51 pm)65 % (2:51 am)
Barometer30.03 in30.36 in (1:51 am)29.83 in (10:47 pm)
Wind Speed15.8 mph24.2 mph (4:36 pm)
Wind Gust34.5 mph (4:06 pm)
Weather ElementAverage
Visibility3.8 mi
Wind DirectionESE (98.9 °)

Weather ElementTotal
Precipitation2.03 in
Heating Degree Days37.2 (Base 65)
Averaged from 63 records on February 21, 2013
WEATHER CONDITIONS BREAKOUT
WIND DIRECTION BREAKOUT
WEATHER BY HOUR - FEBRUARY 21, 2013
[ °C ]   °F
Local TimeTemperatureDewpointHumidityBarometerVisibilityWind DirectionWind SpeedGust SpeedPrecipitationEventsConditions
1:51 AM21.9 °F12.9 °F68 %30.36 in10.0 miEast (80°)5.8 mphScattered Clouds
2:51 AM23.0 °F12.9 °F65 %30.32 in10.0 miEast (80°)6.9 mphMostly Cloudy
3:51 AM24.1 °F15.1 °F69 %30.31 in10.0 miEast (80°)8.1 mphMostly Cloudy
4:51 AM24.1 °F15.1 °F69 %30.26 in10.0 miEast (100°)12.7 mphMostly Cloudy
5:51 AM25.0 °F15.1 °F66 %30.29 in10.0 miEast (90°)11.5 mphMostly Cloudy
6:51 AM25.0 °F16.0 °F69 %30.25 in10.0 miEast (80°)16.1 mph21.9 mphMostly Cloudy
7:51 AM26.1 °F17.1 °F69 %30.30 in10.0 miEast (100°)11.5 mphMostly Cloudy
8:51 AM26.1 °F17.1 °F69 %30.27 in10.0 miESE (120°)13.8 mphOvercast
9:51 AM27.0 °F17.1 °F66 %30.24 in10.0 miESE (110°)17.3 mph20.7 mphOvercast
10:07 AM26.6 °F17.6 °F69 %30.17 in4.0 miEast (100°)16.1 mph0.00 inSnowLight Snow
10:10 AM26.6 °F17.6 °F69 %30.14 in2.0 miEast (90°)18.4 mph24.2 mph0.00 inSnowLight Snow
10:14 AM26.6 °F17.6 °F69 %30.13 in1.5 miEast (90°)21.9 mph0.00 inSnowLight Snow
10:26 AM26.6 °F17.6 °F69 %30.13 in2.0 miEast (90°)15.0 mph28.8 mph0.03 inSnowLight Ice Pellets
10:30 AM26.6 °F19.4 °F74 %30.12 in4.0 miEast (80°)15.0 mph27.6 mph0.04 inSnowLight Ice Pellets
10:34 AM26.6 °F19.4 °F74 %30.12 in5.0 miEast (90°)15.0 mph21.9 mph0.04 inSnowLight Ice Pellets
10:46 AM26.6 °F19.4 °F74 %30.14 in5.0 miEast (100°)12.7 mph18.4 mph0.05 inSnowLight Snow
10:51 AM26.1 °F19.0 °F75 %30.15 in5.0 miEast (80°)17.3 mph0.05 inSnowLight Snow
10:56 AM26.6 °F19.4 °F74 %30.11 in3.0 miEast (100°)19.6 mph0.00 inSnowLight Snow
11:01 AM26.6 °F19.4 °F74 %30.13 in4.0 miEast (100°)15.0 mph0.00 inSnowLight Snow
11:07 AM26.6 °F19.4 °F74 %30.08 in2.5 miEast (90°)18.4 mph0.00 inSnowLight Snow
11:19 AM26.6 °F19.4 °F74 %30.05 in1.2 miEast (80°)20.7 mph29.9 mph0.01 inSnowLight Snow
11:24 AM26.6 °F19.4 °F74 %30.09 in1.0 miEast (100°)16.1 mph29.9 mph0.03 inSnowIce Pellets
11:28 AM26.6 °F19.4 °F74 %30.11 in0.5 miESE (110°)12.7 mph26.5 mph0.04 inSnowSnow
11:31 AM26.6 °F19.4 °F74 %30.12 in0.2 miEast (100°)15.0 mph24.2 mph0.06 inSnowHeavy Snow
11:39 AM24.8 °F21.2 °F86 %30.07 in0.2 miEast (80°)20.7 mph0.10 inFog-SnowHeavy Snow
11:45 AM24.8 °F21.2 °F86 %30.08 in0.5 miEast (80°)17.3 mph0.13 inFog-SnowSnow
11:51 AM25.0 °F21.0 °F85 %30.13 in0.5 miEast (80°)13.8 mph0.13 inFog-SnowSnow
12:51 PM25.0 °F21.9 °F88 %30.16 in0.5 miNE (50°)9.2 mph0.18 inFog-SnowSnow
1:39 PM24.8 °F21.2 °F86 %30.12 in0.5 miNE (40°)9.2 mph0.12 inFog-SnowSnow
1:51 PM25.0 °F21.0 °F85 %30.14 in0.5 miENE (60°)10.4 mph0.14 inFog-SnowSnow
2:04 PM24.8 °F21.2 °F86 %30.12 in0.2 miEast (80°)10.4 mph0.03 inFog-SnowHeavy Snow
2:27 PM24.8 °F21.2 °F86 %30.04 in0.2 miEast (80°)18.4 mph0.15 inFog-SnowHeavy Snow
2:51 PM25.0 °F21.9 °F88 %30.06 in0.2 miEast (80°)21.9 mph0.28 inFog-SnowHeavy Snow
3:17 PM26.6 °F21.2 °F80 %29.96 in0.8 miEast (80°)23.0 mph29.9 mph0.04 inSnowLight Snow
3:22 PM26.6 °F21.2 °F80 %29.94 in1.0 miEast (80°)21.9 mph29.9 mphSnowLight Snow
3:30 PM26.6 °F21.2 °F80 %29.94 in1.5 miEast (80°)21.9 mph29.9 mph0.05 inRain-SnowLight Freezing Rain
3:51 PM27.0 °F23.0 °F85 %29.96 in1.5 miEast (80°)23.0 mph32.2 mph0.06 inRainLight Freezing Rain
4:06 PM28.4 °F23.0 °F80 %29.92 in3.0 miEast (100°)23.0 mph34.5 mph0.01 inRainLight Freezing Rain
4:22 PM28.4 °F23.0 °F80 %29.90 in7.0 miEast (100°)23.0 mph31.1 mph0.01 inLight Freezing Drizzle
4:36 PM28.4 °F24.8 °F86 %29.87 in4.0 miEast (100°)24.2 mph31.1 mph0.01 inRainLight Freezing Rain
4:51 PM28.9 °F24.1 °F82 %29.94 in3.0 miEast (100°)15.0 mph25.3 mph0.02 inRainLight Freezing Rain
5:22 PM30.2 °F24.8 °F80 %29.87 in4.0 miEast (100°)18.4 mph28.8 mph0.01 inRainLight Freezing Rain
5:37 PM30.2 °F24.8 °F80 %29.89 in7.0 miESE (110°)16.1 mph0.01 inRainLight Freezing Rain
5:44 PM30.2 °F26.6 °F86 %29.86 in2.5 miEast (100°)18.4 mph23.0 mph0.02 inRainLight Freezing Rain
5:51 PM30.0 °F26.1 °F85 %29.91 in2.5 miEast (100°)15.0 mph23.0 mph0.03 inRainLight Freezing Rain
6:07 PM30.2 °F26.6 °F86 %29.87 in4.0 miEast (100°)19.6 mph25.3 mph0.01 inRainLight Freezing Rain
6:14 PM30.2 °F26.6 °F86 %29.86 in7.0 miESE (110°)20.7 mph0.01 inOvercast
6:36 PM30.2 °F26.6 °F86 %29.90 in6.0 miESE (120°)16.1 mph0.01 inRainLight Freezing Rain
6:42 PM30.2 °F26.6 °F86 %29.88 in4.0 miESE (120°)17.3 mph0.01 inRainLight Freezing Rain
6:51 PM30.9 °F27.0 °F85 %29.90 in4.0 miESE (110°)17.3 mph26.5 mph0.02 inRainLight Freezing Rain
6:57 PM32.0 °F26.6 °F80 %29.86 in2.5 miESE (110°)20.7 mph25.3 mph0.01 inRainLight Freezing Rain
7:08 PM32.0 °F26.6 °F80 %29.86 in4.0 miESE (120°)20.7 mph26.5 mph0.02 inRainLight Freezing Rain
7:24 PM32.0 °F26.6 °F80 %29.87 in7.0 miESE (120°)21.9 mph29.9 mph0.02 inOvercast
7:51 PM32.0 °F27.0 °F82 %29.90 in7.0 miESE (120°)20.7 mph29.9 mph0.02 inOvercast
8:19 PM32.0 °F26.6 °F80 %29.86 in4.0 miSE (130°)16.1 mph29.9 mph0.00 inRainLight Freezing Rain
8:38 PM32.0 °F26.6 °F80 %29.86 in3.0 miSE (130°)15.0 mph25.3 mph0.00 inRainLight Freezing Rain
8:49 PM32.0 °F28.4 °F87 %29.86 in2.0 miSE (130°)13.8 mph0.00 inRainLight Freezing Rain
9:41 PM32.0 °F28.4 °F87 %29.86 in2.0 miSE (140°)11.5 mph0.01 inLight Freezing Drizzle
9:51 PM32.0 °F28.9 °F88 %29.89 in2.0 miSE (130°)9.2 mph18.4 mph0.01 inLight Freezing Drizzle
10:47 PM32.0 °F28.4 °F87 %29.83 in3.0 miSE (130°)8.1 mph0.00 inLight Freezing Drizzle
10:51 PM32.0 °F28.9 °F88 %29.87 in3.0 miSE (130°)6.9 mph0.00 inLight Freezing Drizzle
11:26 PM33.8 °F30.2 °F87 %29.83 in2.5 miSE (130°)8.1 mph0.00 inLight Drizzle
11:51 PM33.1 °F30.0 °F89 %29.87 in2.5 miSSE (150°)4.6 mph0.00 inLight Drizzle
Hourly data recorded from KSTL, located miles away from Earth City, Missouri







STORIES FROM OUR PARTNERS